Ocean Honey — VRDL3 — position and weather

sailwx.info

Track history (hours):
 
Tides and Currents Weather Stations Pressure Air Temp Water Temp Dewpoint Dewpoint Depression Visibility Wind Speed Wind Dir Waves Ship Positions

Ocean Honey

Last reported at 2014-Nov-03 06:23 UTC. Time now 2014-Nov-26 05:21 UTC.
Position S 23°25' W 040°47'.
Warning: this ship's position is 22 days out of date.

Length 167 m; draft 9.9 m.

Type: Cargo ship. MMSI: 477003100.

Date/timePositionNaut miles runAvg speedWind from/ knotsBaromVisibWave heightAir tempDewpointWater temp
2014-Nov-03 06:23S 23°25' W 040°47'9 9.9
2014-Nov-03 05:26S 23°25' W 040°57'9 9.8
2014-Nov-03 04:32S 23°25' W 041°07'1010.1
2014-Nov-03 03:33S 23°25' W 041°18'  
2014-Oct-26 10:14S 35°10' W 056°50'19 9.1
2014-Oct-26 08:06S 35°01' W 057°11'7 9.9
2014-Oct-26 07:24S 34°56' W 057°17'18 9.6
2014-Oct-26 05:32S 34°46' W 057°35'1010.5
2014-Oct-26 04:34S 34°44' W 057°47'8 7.6
2014-Oct-26 03:33S 34°41' W 057°56'1110.7
2014-Oct-26 02:33S 34°38' W 058°08'1010.0
2014-Oct-26 01:33S 34°33' W 058°19'9 9.4
2014-Oct-26 00:33S 34°25' W 058°26'9 9.4
2014-Oct-25 23:33S 34°18' W 058°33'1010.0
2014-Oct-25 22:33S 34°15' W 058°44'9 9.2
2014-Oct-25 21:33S 34°11' W 058°54'16 8.0
2014-Oct-25 19:33S 33°60' W 059°08'  
Track history (hours):
 
Tides and Currents Weather Stations Pressure Air Temp Water Temp Dewpoint Dewpoint Depression Visibility Wind Speed Wind Dir Waves Ship Positions

Ocean Honey

Last reported at 2014-Nov-03 06:23 UTC. Time now 2014-Nov-26 05:21 UTC.
Position S 23°25' W 040°47'.
Warning: this ship's position is 22 days out of date.

Length 167 m; draft 9.9 m.

Type: Cargo ship. MMSI: 477003100.

Date/timePositionNaut miles runAvg speedWind from/ knotsBaromVisibWave heightAir tempDewpointWater temp
2014-Nov-03 06:23S 23°25' W 040°47'9 9.9
2014-Nov-03 05:26S 23°25' W 040°57'9 9.8
2014-Nov-03 04:32S 23°25' W 041°07'1010.1
2014-Nov-03 03:33S 23°25' W 041°18'  
2014-Oct-26 10:14S 35°10' W 056°50'19 9.1
2014-Oct-26 08:06S 35°01' W 057°11'7 9.9
2014-Oct-26 07:24S 34°56' W 057°17'18 9.6
2014-Oct-26 05:32S 34°46' W 057°35'1010.5
2014-Oct-26 04:34S 34°44' W 057°47'8 7.6
2014-Oct-26 03:33S 34°41' W 057°56'1110.7
2014-Oct-26 02:33S 34°38' W 058°08'1010.0
2014-Oct-26 01:33S 34°33' W 058°19'9 9.4
2014-Oct-26 00:33S 34°25' W 058°26'9 9.4
2014-Oct-25 23:33S 34°18' W 058°33'1010.0
2014-Oct-25 22:33S 34°15' W 058°44'9 9.2
2014-Oct-25 21:33S 34°11' W 058°54'16 8.0
2014-Oct-25 19:33S 33°60' W 059°08'  

Dump ship's entire track history